Terminal Aerodrome Forecast
Issued by NWS

Current Version | Previous Version | Graphics & Text | Print | Product List | Glossary On
Versions: 1 2 3 4 5 6 7 8 9 10 11 12 13 14 15 16 17 18 19
268
FTUS41 KPBZ 131436 AAA
TAFMGW
TAF AMD
KMGW 131436Z 1315/1412 32007G15KT P6SM OVC025
     FM131600 32009KT P6SM BKN050
     FM132000 32009KT P6SM SCT050
     FM140500 33003KT P6SM SCT050=

USA.gov is the U.S. government's official web portal to all federal, state and local government web resources and services.